Location: Newark
(30.0333°N, 31.2167°E)
Time: 11:36:49
(UTC+00:00)

Tiros 1 - Pass Details

Date: 31 January 2020
Orbit: 631 x 664 km, 48.4° (Epoch: 22 February)

Event Time Altitude Azimuth Distance (km) Brightness Sun altitude
Rises 15:21:29 0° 307° (NW) 2,968 11.0 1.1°
Reaches altitude 10° 15:23:51 10° 304° (NW) 2,060 10.3 0.6°
Maximum altitude 15:28:31 60° 225° (SW) 752 8.0 -0.4°
Drops below altitude 10° 15:33:13 10° 146° (SE) 2,066 9.6 -1.3°
Sets 15:35:36 0° 142° (SE) 2,978 10.4 -1.8°
